www.pogodaiklimat.ru

Погода и климат >> Архив погоды >> Индонезия >> Намлеа


ПОГОДА в Намлеа

  • Прогноз погоды в Намлеа
  • Монитор погоды в Намлеа

АРХИВ ПОГОДЫ в Намлеа

Время (UTC), дата Ветер
(напр.,м/с)
 
Видим.   Явления Облачность Т
(С)
Тd
(С)
f
(%)
Тe
(С)
Тes
(С)
Комфортность P
(гПа)
Po
(гПа)
Тmin
(С)
Tmax
(С)
R
(мм)
R24
(мм)
S
(см)
00 9.09 ЮЗ 2 11 км 4/3 500 м
[Cu med, cong Ac trans Ci fib]
+26.4 +19.6 66 +32 +37 очень
душно
1012.5 1010.9 +20.6
03 9.09 ЮВ 4 11 км 3/3 480 м
[Cu med, cong Ci fib]
+30.8 +27.1 81 +49 +59 опасность
перегрева
1011.1 1009.5
06 9.09 ЮВ 4 10 км 3/3 480 м
[Cu med, cong Ci fib]
+30.8 +17.0 44 +35 +42 очень
душно
1008.6 1007.1
09 9.09 ЮВ 3 11 км 4/3 500 м
[Cu med, cong Ac trans Ci fib]
+27.4 +18.7 59 +32 +33 очень
душно
1009.1 1007.5
12 9.09 Ю 3 10 км 3/3 480 м
[Cu med, cong Ci fib]
+24.6 +19.6 74 +30 +30 очень
душно
1011.9 1010.3 +31.0
15 9.09 Ю 2 10 км 3/3 480 м
[Cu med, cong Ci fib]
+22.4 +19.2 82 +28 +28 душно 1011.7 1010.2
18 9.09 ЮЗ 3 10 км 3/3 480 м
[Cu med, cong Ci fib]
+21.0 +18.7 87 +26 +26 душно 1010.6 1009.0
21 9.09 ЮЗ 3 10 км 4/3 500 м
[Cu med, cong Ac trans Ci fib]
+20.2 +18.5 90 +24 +24 комфорт 1011.1 1009.5
00 10.09 ЮЗ 3 10 км 4/3 500 м
[Cu med, cong Ac trans Ci fib]
+26.1 +19.4 67 +32 +36 очень
душно
1011.8 1010.2 +20.0
03 10.09 ЮВ 6 10 км 4/3 500 м
[Cu med, cong Ac trans Ci fib]
+31.1 +18.7 48 +36 +42 очень
душно
1011.2 1009.7
06 10.09 ЮВ 7 10 км 3/3 500 м
[Cu med, cong Ac trans]
+30.6 +18.8 49 +36 +39 очень
душно
1009.7 1008.1
09 10.09 ЮВ 4 10 км 3/3 500 м
[Cu med, cong Ci fib]
+27.9 +14.5 44 +30 +30 жарко 1010.0 1008.5
12 10.09 штиль 0 10 км 3/3 500 м
[Cu med, cong Ci fib]
+23.5 +16.6 65 +27 +27 душно 1012.2 1010.7 +31.3
15 10.09 ЮЗ 3 10 км 4/3 500 м
[Cu med, cong Ac trans Ci fib]
+21.1 +17.5 80 +25 +25 комфорт 1013.2 1011.6
18 10.09 ЮЗ 2 10 км 4/3 500 м
[Cu med, cong Ac trans Ci fib]
+19.6 +17.4 87 +23 +23 комфорт 1012.5 1011.0
21 10.09 ЮЗ 3 10 км 4/3 500 м
[Cu med, cong Ac trans Ci fib]
+19.3 +17.4 89 +21 +21 комфорт 1012.4 1010.8
00 11.09 ЮЗ 4 11 км 3/3 480 м
[Cu med, cong]
+25.4 +19.0 68 +30 +35 душно 1013.4 1011.9 +19.2
03 11.09 В 5 10 км 6/3 540 м
[Cu med, cong Ac trans Ci fib]
+30.3 +20.2 55 +37 +43 очень
душно
1011.9 1010.3
06 11.09 ЮВ 5 11 км 3/3 480 м
[Cu med, cong]
+29.6 +18.8 52 +35 +40 очень
душно
1009.6 1007.7
09 11.09 ЮВ 4 10 км 3/3 500 м
[Cu med, cong]
+26.6 +20.0 67 +33 +33 очень
душно
1007.9 1008.4
12 11.09 Ю 3 10 км 5/3 500 м
[Cu med, cong Ac trans Ci fib]
+25.0 +20.4 76 +31 +31 очень
душно
1012.0 1010.5 +30.6
15 11.09 Ю 3 10 км 3/3 500 м
[Cu med, cong Ci fib]
+23.8 +20.4 81 +29 +29 душно 1013.1 1011.5
18 11.09 Ю 4 10 км 4/3 500 м
[Cu med, cong Ac trans Ci fib]
+24.4 +20.0 76 +30 +30 очень
душно
1012.1 1010.5
21 11.09 ЮЗ 4 10 км 5/3 540 м
[Cu med, cong Ac trans Ci fib]
+22.4 +19.0 81 +28 +28 душно 1012.2 1010.6
00 12.09 ЮЗ 3 10 км 6/4 540 м
[Cu Sc Ac trans Ci sp]
+26.0 +20.1 70 +32 +35 очень
душно
1013.7 1012.2 +19.2
03 12.09 ЮВ 4 10 км 6/3 540 м
[Cu med, cong Ac trans Ci sp]
+28.2 +21.3 66 +36 +43 очень
душно
1012.4 1010.8
06 12.09 ЮВ 7 10 км 4/3 540 м
[Cu med, cong Ac trans Ci sp]
+29.0 +19.2 55 +34 +37 очень
душно
1009.8 1008.3
09 12.09 ЮВ 4 10 км 4/3 540 м
[Cu med, cong Ac trans Ci fib]
+26.2 +19.4 66 +32 +32 очень
душно
1010.3 1008.7
12 12.09 Ю 3 10 км 3/3 480 м
[Cu med, cong Ci fib]
+24.2 +19.8 76 +29 +29 душно 1012.6 1011.0 +29.6
15 12.09 ЮЗ 3 10 км 3/3 480 м
[Cu med, cong Ci fib]
+21.6 +18.7 84 +26 +26 душно 1012.4 1010.8
18 12.09 ЮЗ 3 10 км 3/3 480 м
[Cu med, cong Ci fib]
+21.6 +19.0 85 +26 +26 душно 1011.8 1010.2
21 12.09 ЮЗ 2 10 км 8/3 500 м
[Cu med, cong Ac trans Ci sp]
+21.6 +19.3 87 +27 +27 душно 1012.4 1010.8
00 13.09 ЮВ 5 10 км 4/3 500 м
[Cu med, cong Ac trans Ci fib]
+27.9 +20.6 65 +35 +37 очень
душно
1013.2 1011.7 +19.8
03 13.09 ЮВ 8 10 км 6/3 540 м
[Cu med, cong Ac trans Ci fib]
+28.9 +21.1 63 +36 +38 очень
душно
1011.6 1010.0
06 13.09 ЮВ 8 10 км 5/3 540 м
[Cu med, cong Ac trans Ci fib]
+29.0 +20.2 59 +35 +37 очень
душно
1009.3 1007.7
09 13.09 ЮВ 6 10 км 5/3 540 м
[Cu med, cong Ac trans Ci fib]
+26.3 +20.8 72 +33 +33 очень
душно
1010.0 1008.4
12 13.09 ЮВ 5 10 км 5/3 540 м
[Cu med, cong Ac trans Ci fib]
+24.8 +20.5 77 +31 +31 очень
душно
1011.9 1010.3 +30.5
15 13.09 ЮЗ 2 10 км 5/3 500 м
[Cu med, cong Ac trans Ci fib]
+23.7 +20.1 80 +29 +29 душно 1012.8 1011.3
18 13.09 ЮЗ 2 10 км 8/3 500 м
[Cu med, cong Ac trans Ci sp]
+23.9 +20.3 80 +30 +30 очень
душно
1011.6 1010.0
21 13.09 Ю 4 10 км 4/3 500 м
[Cu med, cong Ac trans Ci fib]
+24.2 +20.8 81 +30 +30 очень
душно
1012.0 1010.4
00 14.09 ЮВ 8 10 км 5/3 500 м
[Cu med, cong Ac trans Ci fib]
+28.4 +21.8 67 +36 +37 очень
душно
1013.5 1011.9 +20.9
03 14.09 ЮВ 6 11 км {дождь} 4/3 540 м
[Cu med, cong Ac trans Ci fib]
+30.8 +20.4 54 +38 +44 очень
душно
1012.1 1010.6 0.0
06 14.09 ЮВ 6 10 км {дождь} 4/3 540 м
[Cu med, cong Ac trans Ci fib]
+30.4 +20.1 54 +37 +41 очень
душно
1009.7 1008.1 0.0
09 14.09 ЮВ 6 10 км 4/3 540 м
[Cu med, cong Ac trans Ci fib]
+27.0 +20.3 67 +33 +33 очень
душно
1009.6 1008.0
12 14.09 Ю 4 10 км 4/3 500 м
[Cu med, cong Ac trans Ci fib]
+25.0 +21.0 78 +31 +31 очень
душно
1011.5 1009.9 +31.7
15 14.09 ЮВ 2 10 км 3/3 500 м
[Cu med, cong Ac trans Ci fib]
+24.3 +21.0 82 +31 +31 очень
душно
1012.3 1010.8
18 14.09 ЮЗ 3 10 км 8/3 540 м
[Cu med, cong Ac trans Ci fib]
+23.2 +20.7 86 +31 +31 очень
душно
1011.0 1009.4
21 14.09 Ю 3 10 км 5/3 540 м
[Cu med, cong Ac trans Ci fib]
+22.4 +20.5 89 +29 +29 очень
душно
1011.2 1009.6
00 15.09 Ю 2 9000 м 8/4 500 м
[Cu Sc Ac As Ci sp]
+25.0 +21.9 83 +32 +35 очень
душно
1012.7 1011.1 +22.4 0.0
03 15.09 ЮВ 4 8000 м 9/4 540 м
[Cu Sc Ac As Ci sp]
+26.0 +22.4 81 +34 +40 очень
душно
1011.6 1010.0
06 15.09 ЮВ 3 9000 м 9/4 540 м
[Cu Sc Ac As Ci sp]
+27.0 +22.5 76 +35 +39 очень
душно
1009.8 1008.1
09 15.09 ЮВ 3 9000 м 9/4 540 м
[Cu Sc Ac As Ci sp]
+26.2 +22.3 79 +34 +34 очень
душно
1009.4 1007.9
12 15.09 Ю 3 7000 м осадки на расстоянии 9/4 500 м
[Cu Sc Ac As Ci sp]
+25.6 +21.6 79 +33 +33 очень
душно
1010.9 1009.3 +28.4
15 15.09 Ю 3 9000 м 9/3 500 м
[Cu med, cong Ac trans Ci sp]
+25.4 +21.1 77 +32 +32 очень
душно
1011.6 1010.0
18 15.09 Ю 2 9000 м 9/3 500 м
[Cu med, cong Ac trans Ci sp]
+25.4 +21.4 79 +32 +32 очень
душно
1011.0 1009.4
21 15.09 Ю 2 10 км 5/3 500 м
[Cu med, cong Ac trans Ci sp]
+23.2 +22.5 96 +32 +32 очень
душно
1010.7 1009.2

 

Местоположение метеостанции Намлеа (Индонезия): широта -3.25 долгота 127.08 высота над уровнем моря 20 м.

В архиве по умолчанию представлена погода в Намлеа за последнюю неделю. Архивные данные за месяц целиком и за предыдущие месяцы, начиная с января 2011 года, Вы можете получить, выбрав интересующий диапазон дат из раскрывающегося списка и нажав кнопку "Ввод!".


*Определитесь, кто Вы:
робот инопланетянин человек

Внимание! Время в таблицах - всемирное. Для получения местного времени необходимо прибавить поправку, которая равна 9 ч.

Смотрите также архив погоды в соседних городах и на ближайших метеорологических станциях:

Погода в Амбоне (Индонезия) (122 км)
Погода на Санане (Индонезия) (177 км)
Погода в Тауне (Индонезия) (182 км)
Погода в Амахаи (Индонезия) (200 км)
Погода в Лабухе (Индонезия) (295 км)
Погода в Неира (Индонезия) (344 км)
Погода в Гесере (Индонезия) (421 км)
Погода в Тернате (Индонезия) (448 км)
Погода в Аэропорту Соронг-Джефман (Индонезия) (517 км)
Погода в Кендари (Индонезия) (525 км)

Пояснения к столбцам:

Ветер - указаны скорость ветра в м/с - средняя за 10 мин, порывы в срок и между сроками (в фигурных скобках) и направление, откуда дует ветер: С - северный, СВ - северо-восточный, В - восточный, ЮВ - юго-восточный, Ю - южный, ЮЗ - юго-западный, З - западный, СЗ - северо-западный.
Видимость - горизонтальная дальность видимости в метрах или километрах. При видимости от 1 до 10 км при отсутствии осадков обычно наблюдается дымка, при ухудшении видимости до 1 км и менее - туман. В сухую погоду видимость может ухудшаться дымом, пылью или мглою.
Явления - указаны атмосферные явления, наблюдавшиеся в срок или в последний час перед сроком; фигурными скобками обозначены явления, наблюдавшиеся между сроками (за 1-3 часа до срока); квадратными скобками обозначены град или гололедные отложения с указанием их диаметра в мм.
Облачность - указаны через наклонную черту общая и нижняя облачность в баллах и высота нижней границы облаков в метрах; квадратными скобками обозначены формы облаков: Ci - перистые, Cs - перисто-слоистые, Cc - перисто-кучевые, Ac - высококучевые, As - высокослоистые, Sc - слоисто-кучевые, Ns - слоисто-дождевые, Cu - кучевые, Cb - кучево-дождевые. Подробнее классификацию облаков см. в Атласе облаков (PDF).
T - Температура воздуха - температура, измеренная на высоте 2 м над землей.
Td - Температура точки росы - температура, при понижении до которой содержащийся в воздухе водяной пар достигнет насыщения.
f - Относительная влажность воздуха - влажноcть воздуха, измеренная на высоте 2 м над землей.
Te - Эффективная температура - температура, которую ощущает одетый по сезону человек в тени. Характеристика душности погоды. При расчете учитывается влияние влажности воздуха и скорости ветра на теплоощущения человека.
Tes - Эффективная температура на солнце - температура, которую ощущает человек, с поправкой на солнечный нагрев. Характеристика знойности погоды. Зависит от высоты солнца над горизонтом, облачности и скорости ветра. Ночью, в пасмурную погоду, а также при ветре 12 м/с и более поправка равна нулю.
P - Атмосферное давление - приведенное к уровню моря атмосферное давление.
Po - Атмосферное давление - измеренное на уровне метеостанции атмосферное давление.
Tmin - Минимальная температура - минимум температуры воздуха на высоте 2 м над землей.
Tmax - Максимальная температура - максимум температуры воздуха на высоте 2 м над землей.
R - Количество осадков - Количество выпавших осадков за период времени, мм. При наведении курсора мыши на число - период времени, за который выпало указанное количество осадков.
R24 - Количество осадков - Количество выпавших осадков за 24 часа, мм.
S - Снежный покров - Высота снежного покрова, см. При наведении курсора мыши на число - состояние снежного покрова и степень покрытия местности в баллах.